| time (UTC) | temp F | wind direction | speed MPH | gust MPH | rain 1hr in | rain 24hr in | rain mn in | humidity % | barometer mb |
| 20260904190516 | 92 | 0.0 | 2.0 | 0.00 | 0.00 | 0.00 | 56 | 1019.6 | |
| 20260904185517 | 92 | 23 | 2.0 | 5.0 | 0.00 | 0.00 | 0.00 | 55 | 1019.6 |
| 20260904184516 | 91 | 0.0 | 1.0 | 0.00 | 0.00 | 0.00 | 53 | 1019.5 | |
| 20260904183516 | 92 | 0.0 | 2.0 | 0.00 | 0.00 | 0.00 | 54 | 1019.8 | |
| 20260904182516 | 92 | 23 | 1.0 | 4.0 | 0.00 | 0.00 | 0.00 | 53 | 1019.9 |
| 20260904181516 | 93 | 23 | 1.0 | 4.0 | 0.00 | 0.00 | 0.00 | 51 | 1019.9 |
| 20260904180516 | 91 | 23 | 2.0 | 4.0 | 0.00 | 0.00 | 0.00 | 54 | 1019.9 |
| 20260904175516 | 91 | 23 | 1.0 | 3.0 | 0.00 | 0.00 | 0.00 | 55 | 1020.1 |
| 20260904174516 | 90 | 23 | 2.0 | 3.0 | 0.00 | 0.00 | 0.00 | 55 | 1020.2 |
| 20260904173516 | 90 | 23 | 1.0 | 4.0 | 0.00 | 0.00 | 0.00 | 56 | 1020.3 |
| 20260904172516 | 90 | 23 | 1.0 | 3.0 | 0.00 | 0.00 | 0.00 | 57 | 1020.6 |
| 20260904171516 | 90 | 23 | 1.0 | 2.0 | 0.00 | 0.00 | 0.00 | 57 | 1020.8 |
| 20260904170537 | 90 | 23 | 1.0 | 2.0 | 0.00 | 0.00 | 0.00 | 58 | 1020.9 |
| 20260904165516 | 89 | 23 | 2.0 | 3.0 | 0.00 | 0.00 | 0.00 | 59 | 1020.9 |
| 20260904164517 | 89 | 23 | 1.0 | 2.0 | 0.00 | 0.00 | 0.00 | 60 | 1021.0 |
| 20260904163536 | 88 | 23 | 2.0 | 6.0 | 0.00 | 0.00 | 0.00 | 61 | 1021.1 |
| 20260904162536 | 87 | 23 | 1.0 | 3.0 | 0.00 | 0.00 | 0.00 | 62 | 1021.2 |
| 20260904161536 | 87 | 23 | 2.0 | 5.0 | 0.00 | 0.00 | 0.00 | 63 | 1021.2 |
| 20260904160516 | 86 | 23 | 1.0 | 4.0 | 0.00 | 0.00 | 0.00 | 65 | 1021.3 |
| 20260904155516 | 85 | 23 | 1.0 | 5.0 | 0.00 | 0.00 | 0.00 | 67 | 1021.3 |
| 20260904154516 | 84 | 0.0 | 0.0 | 0.00 | 0.00 | 0.00 | 73 | 1021.3 | |
| 20260904153516 | 83 | 0.0 | 0.0 | 0.00 | 0.00 | 0.00 | 73 | 1021.2 | |
| 20260904152516 | 82 | 0.0 | 1.0 | 0.00 | 0.00 | 0.00 | 73 | 1021.2 | |
| 20260904151516 | 81 | 0.0 | 0.0 | 0.00 | 0.00 | 0.00 | 75 | 1021.1 | |
| 20260904150536 | 81 | 0.0 | 1.0 | 0.00 | 0.00 | 0.00 | 77 | 1021.2 | |
| 20260904145516 | 80 | 0.0 | 1.0 | 0.00 | 0.00 | 0.00 | 78 | 1021.2 | |
| 20260904144516 | 79 | 0.0 | 0.0 | 0.00 | 0.00 | 0.00 | 82 | 1021.2 | |
| 20260904143516 | 78 | 0.0 | 1.0 | 0.00 | 0.00 | 0.00 | 83 | 1021.1 | |
| 20260904142536 | 77 | 0.0 | 0.0 | 0.00 | 0.00 | 0.00 | 85 | 1021.2 | |
| 20260904141556 | 76 | 0.0 | 0.0 | 0.00 | 0.00 | 0.00 | 86 | 1021.2 | |
| 20260904140536 | 75 | 0.0 | 0.0 | 0.00 | 0.00 | 0.00 | 88 | 1021.1 | |
| 20260904135516 | 74 | 0.0 | 1.0 | 0.00 | 0.00 | 0.00 | 89 | 1021.1 | |
| 20260904134516 | 73 | 0.0 | 1.0 | 0.00 | 0.00 | 0.00 | 90 | 1021.1 | |
| 20260904133516 | 72 | 0.0 | 0.0 | 0.00 | 0.00 | 0.00 | 89 | 1020.8 | |
| 20260904132516 | 72 | 0.0 | 0.0 | 0.00 | 0.00 | 0.00 | 89 | 1021.0 | |
| 20260904131515 | 71 | 0.0 | 0.0 | 0.00 | 0.00 | 0.00 | 88 | 1020.8 | |
| 20260904130516 | 71 | 0.0 | 0.0 | 0.00 | 0.00 | 0.00 | 87 | 1020.8 | |
| 20260904125556 | 70 | 0.0 | 0.0 | 0.00 | 0.00 | 0.00 | 86 | 1020.7 | |
| 20260904124536 | 70 | 0.0 | 0.0 | 0.00 | 0.00 | 0.00 | 85 | 1020.8 | |
| 20260904123516 | 69 | 0.0 | 0.0 | 0.00 | 0.00 | 0.00 | 83 | 1020.6 | |
| 20260904122516 | 69 | 0.0 | 0.0 | 0.00 | 0.00 | 0.00 | 82 | 1020.7 | |
| 20260904121516 | 69 | 0.0 | 0.0 | 0.00 | 0.00 | 0.00 | 81 | 1020.6 | |
| 20260904120515 | 68 | 0.0 | 0.0 | 0.00 | 0.00 | 0.00 | 82 | 1020.5 | |
| 20260904115538 | 68 | 0.0 | 0.0 | 0.00 | 0.00 | 0.00 | 83 | 1020.7 | |
| 20260904114515 | 68 | 0.0 | 0.0 | 0.00 | 0.00 | 0.00 | 84 | 1020.8 | |
| 20260904113516 | 68 | 0.0 | 0.0 | 0.00 | 0.00 | 0.00 | 85 | 1020.7 | |
| 20260904112515 | 68 | 0.0 | 0.0 | 0.00 | 0.00 | 0.00 | 85 | 1020.8 | |
| 20260904111556 | 68 | 0.0 | 0.0 | 0.00 | 0.00 | 0.00 | 85 | 1020.5 | |
| 20260904110515 | 68 | 0.0 | 0.0 | 0.00 | 0.00 | 0.00 | 86 | 1020.2 | |
| 20260904105515 | 68 | 0.0 | 0.0 | 0.00 | 0.00 | 0.00 | 87 | 1020.4 | |
| 20260904104515 | 68 | 0.0 | 0.0 | 0.00 | 0.00 | 0.00 | 87 | 1020.4 | |
| 20260904103516 | 68 | 0.0 | 0.0 | 0.00 | 0.00 | 0.00 | 87 | 1020.3 | |
| 20260904102515 | 68 | 0.0 | 0.0 | 0.00 | 0.00 | 0.00 | 87 | 1020.2 | |
| 20260904101515 | 69 | 0.0 | 0.0 | 0.00 | 0.00 | 0.00 | 87 | 1020.1 | |
| 20260904100515 | 69 | 0.0 | 0.0 | 0.00 | 0.00 | 0.00 | 87 | 1020.3 | |
| 20260904095515 | 69 | 0.0 | 0.0 | 0.00 | 0.00 | 0.00 | 85 | 1020.3 | |
| 20260904094515 | 69 | 0.0 | 0.0 | 0.00 | 0.00 | 0.00 | 86 | 1020.4 | |
| 20260904093515 | 69 | 0.0 | 0.0 | 0.00 | 0.00 | 0.00 | 86 | 1020.4 | |
| 20260904092515 | 69 | 0.0 | 0.0 | 0.00 | 0.00 | 0.00 | 86 | 1020.5 | |
| 20260904091515 | 69 | 0.0 | 0.0 | 0.00 | 0.00 | 0.00 | 86 | 1020.5 | |
| 20260904090515 | 69 | 0.0 | 0.0 | 0.00 | 0.00 | 0.00 | 86 | 1020.6 | |
| 20260904085555 | 69 | 0.0 | 0.0 | 0.00 | 0.00 | 0.00 | 87 | 1020.9 | |
| 20260904084515 | 69 | 0.0 | 0.0 | 0.00 | 0.00 | 0.00 | 87 | 1020.7 | |
| 20260904083515 | 69 | 0.0 | 0.0 | 0.00 | 0.00 | 0.00 | 87 | 1020.7 | |
| 20260904082515 | 69 | 0.0 | 0.0 | 0.00 | 0.00 | 0.00 | 88 | 1020.4 | |
| 20260904081517 | 69 | 0.0 | 0.0 | 0.00 | 0.00 | 0.00 | 88 | 1020.4 | |
| 20260904080515 | 69 | 0.0 | 0.0 | 0.00 | 0.00 | 0.00 | 88 | 1020.4 | |
| 20260904075517 | 69 | 0.0 | 0.0 | 0.00 | 0.00 | 0.00 | 88 | 1020.2 | |
| 20260904074535 | 69 | 0.0 | 0.0 | 0.00 | 0.00 | 0.00 | 89 | 1020.3 | |
| 20260904073517 | 69 | 0.0 | 0.0 | 0.00 | 0.00 | 0.00 | 89 | 1020.2 | |
| 20260904072517 | 70 | 0.0 | 0.0 | 0.00 | 0.00 | 0.00 | 89 | 1020.4 | |
| 20260904071537 | 70 | 0.0 | 0.0 | 0.00 | 0.00 | 0.00 | 89 | 1020.5 | |
| 20260904070517 | 70 | 0.0 | 0.0 | 0.00 | 0.00 | 0.00 | 89 | 1020.6 | |
| 20260904065537 | 70 | 0.0 | 0.0 | 0.00 | 0.00 | 0.00 | 89 | 1020.5 | |
| 20260904064517 | 70 | 0.0 | 0.0 | 0.00 | 0.00 | 0.00 | 89 | 1020.6 | |
| 20260904063517 | 70 | 0.0 | 0.0 | 0.00 | 0.00 | 0.00 | 89 | 1020.7 | |
| 20260904062537 | 70 | 0.0 | 0.0 | 0.00 | 0.00 | 0.00 | 89 | 1020.8 | |
| 20260904061557 | 70 | 0.0 | 0.0 | 0.00 | 0.00 | 0.00 | 89 | 1020.9 | |
| 20260904060517 | 70 | 0.0 | 0.0 | 0.00 | 0.00 | 0.00 | 89 | 1021.0 | |
| 20260904055517 | 71 | 0.0 | 0.0 | 0.00 | 0.00 | 0.00 | 89 | 1021.2 | |
| 20260904054517 | 71 | 0.0 | 0.0 | 0.00 | 0.00 | 0.00 | 89 | 1021.4 | |
| 20260904053517 | 71 | 0.0 | 0.0 | 0.00 | 0.00 | 0.00 | 89 | 1021.5 | |
| 20260904052537 | 71 | 0.0 | 0.0 | 0.00 | 0.00 | 0.00 | 89 | 1021.2 | |
| 20260904051517 | 71 | 0.0 | 0.0 | 0.00 | 0.00 | 0.00 | 89 | 1021.3 | |
| 20260904050517 | 72 | 0.0 | 0.0 | 0.00 | 0.00 | 0.00 | 89 | 1021.3 | |
| 20260904045517 | 72 | 0.0 | 0.0 | 0.00 | 0.00 | 0.00 | 89 | 1021.4 | |
| 20260904044517 | 72 | 0.0 | 0.0 | 0.00 | 0.00 | 0.00 | 89 | 1021.4 | |
| 20260904043517 | 72 | 0.0 | 0.0 | 0.00 | 0.00 | 0.00 | 89 | 1021.4 | |
| 20260904042517 | 72 | 0.0 | 0.0 | 0.00 | 0.00 | 0.00 | 88 | 1021.3 | |
| 20260904041517 | 73 | 0.0 | 0.0 | 0.00 | 0.00 | 0.00 | 88 | 1021.5 | |
| 20260904040517 | 73 | 0.0 | 0.0 | 0.00 | 0.00 | 0.00 | 88 | 1021.6 | |
| 20260904035519 | 73 | 0.0 | 0.0 | 0.00 | 0.00 | 0.00 | 87 | 1021.2 | |
| 20260904034517 | 74 | 0.0 | 0.0 | 0.00 | 0.00 | 0.00 | 87 | 1021.2 | |
| 20260904033517 | 74 | 0.0 | 0.0 | 0.00 | 0.00 | 0.00 | 87 | 1021.2 | |
| 20260904032517 | 74 | 0.0 | 0.0 | 0.00 | 0.00 | 0.00 | 86 | 1021.1 | |
| 20260904031517 | 74 | 0.0 | 0.0 | 0.00 | 0.00 | 0.00 | 86 | 1021.0 | |
| 20260904030537 | 74 | 0.0 | 0.0 | 0.00 | 0.00 | 0.00 | 86 | 1021.0 | |
| 20260904025517 | 74 | 0.0 | 0.0 | 0.00 | 0.00 | 0.00 | 86 | 1021.0 | |
| 20260904024537 | 75 | 0.0 | 0.0 | 0.00 | 0.00 | 0.00 | 85 | 1021.0 | |
| 20260904023517 | 75 | 0.0 | 0.0 | 0.00 | 0.00 | 0.00 | 85 | 1021.1 | |
| 20260904022517 | 75 | 0.0 | 0.0 | 0.00 | 0.00 | 0.00 | 85 | 1021.0 | |
| 20260904021517 | 75 | 0.0 | 0.0 | 0.00 | 0.00 | 0.00 | 84 | 1021.1 | |
| 20260904020517 | 76 | 0.0 | 0.0 | 0.00 | 0.00 | 0.00 | 83 | 1021.0 | |
| 20260904015537 | 76 | 0.0 | 0.0 | 0.00 | 0.00 | 0.00 | 82 | 1020.6 | |
| 20260904014517 | 77 | 0.0 | 0.0 | 0.00 | 0.00 | 0.00 | 81 | 1020.5 | |
| 20260904013517 | 77 | 0.0 | 0.0 | 0.00 | 0.00 | 0.00 | 81 | 1020.3 | |
| 20260904012517 | 78 | 0.0 | 0.0 | 0.00 | 0.00 | 0.00 | 80 | 1020.0 | |
| 20260904011517 | 78 | 0.0 | 0.0 | 0.00 | 0.00 | 0.00 | 80 | 1019.9 | |
| 20260904010517 | 78 | 0.0 | 0.0 | 0.00 | 0.00 | 0.00 | 79 | 1019.7 | |
| 20260904005517 | 79 | 0.0 | 0.0 | 0.00 | 0.00 | 0.00 | 79 | 1019.5 | |
| 20260904004516 | 79 | 0.0 | 0.0 | 0.00 | 0.00 | 0.00 | 78 | 1019.4 | |
| 20260904003517 | 79 | 0.0 | 0.0 | 0.00 | 0.00 | 0.00 | 76 | 1019.1 | |
| 20260904002517 | 80 | 0.0 | 0.0 | 0.00 | 0.00 | 0.00 | 75 | 1019.1 | |
| 20260904001517 | 80 | 0.0 | 0.0 | 0.00 | 0.00 | 0.00 | 75 | 1019.0 | |
| 20260904000517 | 81 | 0.0 | 0.0 | 0.00 | 0.00 | 0.00 | 75 | 1018.9 | |
| 20260903235517 | 82 | 0.0 | 0.0 | 0.00 | 0.00 | 0.00 | 74 | 1018.9 | |
| 20260903234517 | 82 | 0.0 | 0.0 | 0.00 | 0.00 | 0.00 | 73 | 1018.9 | |
| 20260903233519 | 83 | 0.0 | 0.0 | 0.00 | 0.00 | 0.00 | 72 | 1018.9 | |
| 20260903232516 | 84 | 0.0 | 0.0 | 0.00 | 0.00 | 0.00 | 70 | 1018.8 | |
| 20260903231517 | 85 | 0.0 | 0.0 | 0.00 | 0.00 | 0.00 | 66 | 1018.8 | |
| 20260903230517 | 86 | 0.0 | 0.0 | 0.00 | 0.00 | 0.00 | 65 | 1019.0 | |
| 20260903225517 | 87 | 0.0 | 0.0 | 0.00 | 0.00 | 0.00 | 65 | 1018.9 | |
| 20260903224516 | 88 | 0.0 | 0.0 | 0.00 | 0.00 | 0.00 | 59 | 1018.9 | |
| 20260903223516 | 88 | 0.0 | 0.0 | 0.00 | 0.00 | 0.00 | 59 | 1019.2 | |
| 20260903222517 | 89 | 0.0 | 0.0 | 0.00 | 0.00 | 0.00 | 58 | 1019.2 | |
| 20260903221516 | 89 | 0.0 | 0.0 | 0.00 | 0.00 | 0.00 | 57 | 1019.1 | |
| 20260903220537 | 90 | 0.0 | 0.0 | 0.00 | 0.00 | 0.00 | 59 | 1019.2 | |
| 20260903215537 | 90 | 0.0 | 0.0 | 0.00 | 0.00 | 0.00 | 58 | 1019.3 | |
| 20260903214516 | 91 | 0.0 | 0.0 | 0.00 | 0.00 | 0.00 | 56 | 1019.2 | |
| 20260903213516 | 92 | 0.0 | 1.0 | 0.00 | 0.00 | 0.00 | 54 | 1019.2 | |
| 20260903212536 | 92 | 0.0 | 0.0 | 0.00 | 0.00 | 0.00 | 53 | 1019.3 | |
| 20260903211516 | 92 | 0.0 | 1.0 | 0.00 | 0.00 | 0.00 | 52 | 1019.4 | |
| 20260903210516 | 93 | 0.0 | 2.0 | 0.00 | 0.00 | 0.00 | 51 | 1019.5 | |
| 20260903205516 | 95 | 0.0 | 1.0 | 0.00 | 0.00 | 0.00 | 50 | 1019.6 | |
| 20260903204536 | 96 | 0.0 | 2.0 | 0.00 | 0.00 | 0.00 | 49 | 1019.9 | |
| 20260903203516 | 97 | 0.0 | 2.0 | 0.00 | 0.00 | 0.00 | 46 | 1020.2 | |
| 20260903202516 | 96 | 0.0 | 0.0 | 0.00 | 0.00 | 0.00 | 48 | 1020.1 | |
| 20260903201516 | 97 | 0.0 | 0.0 | 0.00 | 0.00 | 0.00 | 48 | 1020.1 | |
| 20260903200516 | 96 | 0.0 | 1.0 | 0.00 | 0.00 | 0.00 | 49 | 1020.2 | |
| 20260903195516 | 95 | 0.0 | 1.0 | 0.00 | 0.00 | 0.00 | 49 | 1020.3 | |
| 20260903194516 | 95 | 0.0 | 1.0 | 0.00 | 0.00 | 0.00 | 49 | 1020.4 | |
| 20260903193516 | 94 | 135 | 1.0 | 2.0 | 0.00 | 0.00 | 0.00 | 51 | 1020.5 |
| 20260903192516 | 94 | 135 | 1.0 | 2.0 | 0.00 | 0.00 | 0.00 | 51 | 1020.6 |
| 20260903191516 | 95 | 158 | 1.0 | 2.0 | 0.00 | 0.00 | 0.00 | 50 | 1020.6 |